When you browse on this site, cookies collect data to enhance your experience and personalize the content and advertising you see.
Visit our Privacy Policy to learn more. By continuing to use the site, you agree to this use of cookies and data.

Tiempo cada hora Berezhany

Hoy, 9 Julio, Jueves

Tiempo Temperatura Precipitaciones Viento Presión Humedad
00:00 +14°C° 0.1 mm 2 mps 736 mmHg 81%
01:00 +14°C° 0.1 mm 2 mps 736 mmHg 83%
02:00 +14°C° 0 mm 2 mps 736 mmHg 84%
03:00 +14°C° 0.4 mm 2 mps 736 mmHg 88%
04:00 +14°C° 0.4 mm 1 mps 736 mmHg 91%
05:00 +14°C° 0.4 mm 1 mps 736 mmHg 95%
06:00 +14°C° 0.5 mm 1 mps 736 mmHg 95%
07:00 +14°C° 0.5 mm 1 mps 736 mmHg 96%
08:00 +14°C° 0 mm 1 mps 737 mmHg 95%
09:00 +15°C° 0.1 mm 1 mps 737 mmHg 92%
10:00 +15°C° 0.1 mm 1 mps 737 mmHg 89%
11:00 +16°C° 0.1 mm 1 mps 738 mmHg 86%
12:00 +18°C° 0.1 mm 2 mps 738 mmHg 82%
13:00 +19°C° 0.1 mm 2 mps 738 mmHg 77%
14:00 +20°C° 0 mm 2 mps 738 mmHg 71%
15:00 +20°C° 0.1 mm 2 mps 737 mmHg 71%
16:00 +20°C° 0.1 mm 2 mps 737 mmHg 71%
17:00 +21°C° 0.1 mm 1 mps 737 mmHg 71%
18:00 +20°C° 0 mm 1 mps 737 mmHg 75%
19:00 +19°C° 0 mm 1 mps 737 mmHg 79%
20:00 +18°C° 0 mm 1 mps 737 mmHg 83%
21:00 +16°C° 0 mm 1 mps 737 mmHg 86%
22:00 +16°C° 0 mm 2 mps 737 mmHg 89%
23:00 +15°C° 0 mm 2 mps 737 mmHg 92%

Mañana, 10 Julio, Viernes

Tiempo Temperatura Precipitaciones Viento Presión Humedad
00:00 +15°C° 0 mm 2 mps 737 mmHg 92%
01:00 +15°C° 0 mm 2 mps 736 mmHg 91%
02:00 +14°C° 0 mm 3 mps 736 mmHg 90%
03:00 +14°C° 0 mm 3 mps 736 mmHg 91%
04:00 +14°C° 0 mm 3 mps 736 mmHg 91%
05:00 +13°C° 0 mm 3 mps 736 mmHg 92%
06:00 +16°C° 0 mm 3 mps 736 mmHg 89%
07:00 +18°C° 0 mm 3 mps 736 mmHg 86%
08:00 +20°C° 0 mm 3 mps 736 mmHg 83%
09:00 +21°C° 0.1 mm 4 mps 736 mmHg 80%
10:00 +23°C° 0.1 mm 4 mps 736 mmHg 77%
11:00 +26°C° 0.1 mm 4 mps 736 mmHg 74%
12:00 +26°C° 0.3 mm 4 mps 736 mmHg 71%
13:00 +27°C° 0.3 mm 4 mps 736 mmHg 68%
14:00 +28°C° 0.3 mm 3 mps 736 mmHg 64%
15:00 +28°C° 0.2 mm 3 mps 736 mmHg 67%
16:00 +28°C° 0.2 mm 3 mps 736 mmHg 70%
17:00 +28°C° 0.2 mm 3 mps 735 mmHg 73%
18:00 +26°C° 0.1 mm 3 mps 735 mmHg 77%
19:00 +25°C° 0.1 mm 3 mps 735 mmHg 82%
20:00 +22°C° 0.1 mm 3 mps 735 mmHg 86%
21:00 +21°C° 0 mm 3 mps 735 mmHg 88%
22:00 +20°C° 0 mm 3 mps 735 mmHg 90%
23:00 +20°C° 0 mm 3 mps 735 mmHg 91%

Pasado mañana, 11 Julio, Sábado

Tiempo Temperatura Precipitaciones Viento Presión Humedad
00:00 +19°C° 0 mm 2 mps 735 mmHg 91%
01:00 +19°C° 0 mm 2 mps 735 mmHg 92%
02:00 +18°C° 0 mm 2 mps 735 mmHg 92%
03:00 +18°C° 0 mm 2 mps 735 mmHg 91%
04:00 +18°C° 0 mm 2 mps 735 mmHg 90%
05:00 +18°C° 0 mm 1 mps 735 mmHg 89%
06:00 +20°C° 0 mm 1 mps 735 mmHg 85%
07:00 +22°C° 0 mm 1 mps 735 mmHg 81%
08:00 +24°C° 0 mm 1 mps 736 mmHg 77%
09:00 +25°C° 0 mm 1 mps 736 mmHg 72%
10:00 +26°C° 0 mm 1 mps 736 mmHg 68%
11:00 +28°C° 0 mm 1 mps 736 mmHg 64%
12:00 +28°C° 0.1 mm 1 mps 735 mmHg 62%
13:00 +29°C° 0.1 mm 2 mps 735 mmHg 60%
14:00 +30°C° 0.1 mm 2 mps 735 mmHg 58%
15:00 +29°C° 0.6 mm 3 mps 735 mmHg 63%
16:00 +28°C° 0.6 mm 3 mps 735 mmHg 69%
17:00 +28°C° 0.6 mm 4 mps 734 mmHg 75%
18:00 +26°C° 1.6 mm 3 mps 734 mmHg 79%
19:00 +25°C° 1.6 mm 3 mps 735 mmHg 83%
20:00 +23°C° 1.6 mm 2 mps 735 mmHg 87%
21:00 +21°C° 0.3 mm 3 mps 735 mmHg 90%
22:00 +19°C° 0.3 mm 4 mps 735 mmHg 93%
23:00 +17°C° 0.3 mm 5 mps 736 mmHg 96%

12 Julio, Domingo

Tiempo Temperatura Precipitaciones Viento Presión Humedad
00:00 +16°C° 0.6 mm 5 mps 736 mmHg 96%
01:00 +17°C° 0.6 mm 4 mps 736 mmHg 96%
02:00 +17°C° 0.6 mm 4 mps 735 mmHg 96%
03:00 +15°C° 0.1 mm 4 mps 735 mmHg 96%
04:00 +14°C° 0.1 mm 4 mps 735 mmHg 96%
05:00 +14°C° 0.1 mm 4 mps 735 mmHg 96%
06:00 +14°C° 0.2 mm 4 mps 735 mmHg 96%
07:00 +14°C° 0.2 mm 4 mps 735 mmHg 97%
08:00 +13°C° 0.2 mm 4 mps 736 mmHg 97%
09:00 +14°C° 0.1 mm 4 mps 736 mmHg 96%
10:00 +14°C° 0.1 mm 5 mps 736 mmHg 96%
11:00 +14°C° 0.1 mm 5 mps 736 mmHg 95%
12:00 +14°C° 0.1 mm 5 mps 736 mmHg 94%
13:00 +13°C° 0.1 mm 6 mps 737 mmHg 94%
14:00 +13°C° 0.1 mm 6 mps 737 mmHg 94%
15:00 +11°C° 0.2 mm 6 mps 737 mmHg 93%
16:00 +11°C° 0.2 mm 7 mps 737 mmHg 93%
17:00 +10°C° 0.2 mm 7 mps 737 mmHg 93%
18:00 +10°C° 1.1 mm 7 mps 737 mmHg 93%
19:00 +10°C° 1.1 mm 7 mps 737 mmHg 94%
20:00 +9°C° 1.1 mm 6 mps 738 mmHg 95%
21:00 +9°C° 0.5 mm 6 mps 738 mmHg 95%
22:00 +9°C° 0.5 mm 6 mps 738 mmHg 94%
23:00 +9°C° 0.5 mm 5 mps 738 mmHg 94%

13 Julio, Lunes

Tiempo Temperatura Precipitaciones Viento Presión Humedad
00:00 +9°C° 0.1 mm 5 mps 738 mmHg 95%
01:00 +10°C° 0.1 mm 4 mps 738 mmHg 95%
02:00 +10°C° 0.1 mm 4 mps 738 mmHg 95%
03:00 +10°C° 0 mm 4 mps 738 mmHg 96%
04:00 +10°C° 0 mm 4 mps 738 mmHg 96%
05:00 +10°C° 0 mm 4 mps 738 mmHg 97%
06:00 +11°C° 0 mm 4 mps 738 mmHg 95%
07:00 +11°C° 0 mm 4 mps 738 mmHg 94%
08:00 +12°C° 0 mm 4 mps 738 mmHg 93%
09:00 +13°C° 0.1 mm 5 mps 738 mmHg 86%
10:00 +15°C° 0.1 mm 6 mps 738 mmHg 79%
11:00 +16°C° 0.1 mm 6 mps 738 mmHg 72%
12:00 +17°C° 0.1 mm 6 mps 737 mmHg 70%
13:00 +17°C° 0.1 mm 6 mps 737 mmHg 68%
14:00 +19°C° 0.1 mm 6 mps 737 mmHg 66%
15:00 +17°C° 0.2 mm 5 mps 737 mmHg 69%
16:00 +17°C° 0.2 mm 5 mps 736 mmHg 73%
17:00 +17°C° 0.2 mm 5 mps 736 mmHg 76%
18:00 +15°C° 0.1 mm 4 mps 736 mmHg 80%
19:00 +14°C° 0.1 mm 4 mps 736 mmHg 84%
20:00 +13°C° 0.1 mm 3 mps 736 mmHg 89%
21:00 +12°C° 0 mm 3 mps 736 mmHg 90%
22:00 +11°C° 0 mm 3 mps 736 mmHg 92%
23:00 +12°C° 0 mm 2 mps 736 mmHg 93%

14 Julio, Martes

Tiempo Temperatura Precipitaciones Viento Presión Humedad
00:00 +10°C° 0 mm 2 mps 736 mmHg 94%
01:00 +10°C° 0 mm 2 mps 736 mmHg 94%
02:00 +9°C° 0 mm 2 mps 736 mmHg 94%
03:00 +9°C° 0 mm 2 mps 736 mmHg 94%
04:00 +9°C° 0 mm 3 mps 735 mmHg 95%
05:00 +9°C° 0 mm 3 mps 735 mmHg 95%
06:00 +10°C° 0 mm 3 mps 735 mmHg 93%
07:00 +12°C° 0 mm 4 mps 736 mmHg 91%
08:00 +14°C° 0 mm 5 mps 736 mmHg 89%
09:00 +15°C° 0.2 mm 5 mps 736 mmHg 85%
10:00 +16°C° 0.2 mm 5 mps 735 mmHg 81%
11:00 +17°C° 0.2 mm 5 mps 735 mmHg 78%
12:00 +19°C° 0.5 mm 5 mps 735 mmHg 78%
13:00 +19°C° 0.5 mm 5 mps 735 mmHg 78%
14:00 +19°C° 0.5 mm 5 mps 735 mmHg 78%
15:00 +19°C° 0.2 mm 5 mps 735 mmHg 78%
16:00 +19°C° 0.2 mm 4 mps 734 mmHg 79%
17:00 +19°C° 0.2 mm 4 mps 734 mmHg 80%
18:00 +18°C° 0 mm 3 mps 734 mmHg 83%
19:00 +17°C° 0 mm 2 mps 735 mmHg 86%
20:00 +16°C° 0 mm 1 mps 735 mmHg 89%
21:00 +15°C° 0 mm 1 mps 735 mmHg 90%
22:00 +14°C° 0 mm 1 mps 735 mmHg 91%
23:00 +14°C° 0 mm 1 mps 735 mmHg 91%
Mostrar más